KK7N Weather Reports


time (UTC)temp
C
wind
direction
speed
KPH
gust
KPH
rain 1hr
cm
rain 24hr
cm
rain mn
cm
humidity
%
barometer
mb
20260510093051 11 0 0.0 1.6 0.00 0.00 0.00 88 1016.4
20260510091551 11 0 0.0 0.0 0.00 0.00 0.00 86 1016.2
20260510090046 12 0 0.0 0.0 0.00 0.00 0.00 85 1016.0
20260510084558 12 0 0.0 0.0 0.00 0.00 0.00 84 1015.8
20260510083110 12 0 0.0 0.0 0.00 0.00 0.00 83 1015.8
20260510081610 12 0 0.0 0.0 0.00 0.00 0.00 82 1015.8
20260510080046 13 0 0.0 0.0 0.00 0.00 0.00 83 1015.8
20260510074546 13 0 0.0 0.0 0.00 0.00 0.00 81 1015.9
20260510073051 13 0 0.0 1.6 0.00 0.00 0.00 81 1015.7
20260510071555 13 0 0.0 3.2 0.00 0.00 0.00 80 1015.7
20260510070048 13 0 0.0 4.8 0.00 0.00 0.00 80 1015.7
20260510064549 14 0 0.0 0.0 0.00 0.00 0.00 79 1015.6
20260510063045 14 0 0.0 0.0 0.00 0.00 0.00 79 1015.7
20260510061553 15 0 0.0 0.0 0.00 0.00 0.00 77 1015.7
20260510060047 15 0 0.0 0.0 0.00 0.00 0.00 78 1015.6
20260510054543 15 0 0.0 1.6 0.00 0.00 0.00 76 1015.5
20260510053052 16 0 0.0 1.6 0.00 0.00 0.00 75 1015.5
20260510051544 16 0 0.0 1.6 0.00 0.00 0.00 74 1015.5
20260510050051 16 0 0.0 1.6 0.00 0.00 0.00 72 1015.4
20260510044549 17 0 0.0 0.0 0.00 0.00 0.00 71 1015.2
20260510043044 17 0 0.0 0.0 0.00 0.00 0.00 68 1015.0
20260510041543 18 0 0.0 0.0 0.00 0.00 0.00 67 1014.9
20260510040047 19 0 0.0 0.0 0.00 0.00 0.00 64 1014.6
20260510034557 20 0 0.0 0.0 0.00 0.00 0.00 61 1014.5
20260510033044 20 0 0.0 1.6 0.00 0.00 0.00 58 1014.4
20260510031557 22 0 0.0 0.0 0.00 0.00 0.00 53 1014.3
20260510030044 22 0 0.0 3.2 0.00 0.00 0.00 48 1014.3
20260510024542 23 0 0.0 0.0 0.00 0.00 0.00 46 1014.2
20260510023047 23 0 0.0 4.8 0.00 0.00 0.00 44 1014.2
20260510021543 24 288 0.0 6.4 0.00 0.00 0.00 35 1014.2
20260510020042 25 0 0.0 0.0 0.00 0.00 0.00 36 1014.2
20260510014545 25 0 0.0 6.4 0.00 0.00 0.00 36 1014.3
20260510013054 25 284 1.6 9.7 0.00 0.00 0.00 35 1014.5
20260510011550 25 0 0.0 3.2 0.00 0.00 0.00 37 1014.5
20260510010049 26 0 0.0 4.8 0.00 0.00 0.00 37 1014.6
20260510004548 26 284 1.6 14.5 0.00 0.00 0.00 34 1014.8
20260510003049 26 270 4.8 14.5 0.00 0.00 0.00 31 1014.8
20260510001546 26 294 1.6 8.0 0.00 0.00 0.00 34 1015.0
20260510000044 27 271 3.2 14.5 0.00 0.00 0.00 31 1015.0
20260509234543 26 300 4.8 14.5 0.00 0.00 0.00 35 1015.0
20260509233053 26 292 3.2 16.1 0.00 0.00 0.00 39 1015.2
20260509231553 26 279 6.4 14.5 0.00 0.00 0.00 36 1015.4
20260509230058 26 294 4.8 14.5 0.00 0.00 0.00 37 1015.7
20260509224548 26 323 4.8 17.7 0.00 0.00 0.00 41 1015.8
20260509223049 26 0 1.6 17.7 0.00 0.00 0.00 47 1016.0
20260509221550 25 295 4.8 19.3 0.00 0.00 0.00 43 1016.2
20260509220046 26 283 4.8 16.1 0.00 0.00 0.00 44 1016.4
20260509214544 25 284 8.0 19.3 0.00 0.00 0.00 45 1016.6
20260509213051 25 284 1.6 17.7 0.00 0.00 0.00 47 1016.8
20260509211545 25 275 4.8 14.5 0.00 0.00 0.00 43 1016.7
20260509210052 25 0 1.6 11.3 0.00 0.00 0.00 47 1016.8
20260509204550 24 303 3.2 14.5 0.00 0.00 0.00 48 1017.2
20260509203040 24 265 3.2 9.7 0.00 0.00 0.00 50 1017.4
20260509201540 23 0 1.6 8.0 0.00 0.00 0.00 49 1017.7
20260509200048 23 289 0.0 16.1 0.00 0.00 0.00 51 1018.0
20260509194543 22 273 3.2 9.7 0.00 0.00 0.00 54 1018.2
20260509193043 22 276 0.0 4.8 0.00 0.00 0.00 56 1018.4
20260509191543 22 276 0.0 6.4 0.00 0.00 0.00 53 1018.6
20260509190056 22 294 1.6 11.3 0.00 0.00 0.00 58 1018.8
20260509184616 21 0 0.0 6.4 0.00 0.00 0.00 58 1019.0
20260509183047 20 288 1.6 6.4 0.00 0.00 0.00 58 1019.3
20260509181547 20 290 1.6 8.0 0.00 0.00 0.00 62 1019.4
20260509180043 19 0 3.2 9.7 0.00 0.00 0.00 66 1019.5
20260509174542 18 0 0.0 6.4 0.00 0.00 0.00 67 1019.8
20260509173047 17 0 0.0 6.4 0.00 0.00 0.00 74 1020.0
20260509171544 16 271 1.6 9.7 0.00 0.00 0.00 74 1020.3
20260509170043 16 0 0.0 3.2 0.00 0.00 0.00 80 1020.4
20260509164542 14 0 0.0 6.4 0.00 0.00 0.00 81 1020.6
20260509163105 13 0 1.6 6.4 0.00 0.00 0.00 87 1020.9
20260509161544 11 280 0.0 4.8 0.00 0.00 0.00 92 1021.0
20260509160047 11 0 0.0 1.6 0.00 0.00 0.00 95 1020.9
20260509154548 10 269 0.0 1.6 0.00 0.00 0.00 95 1021.0
20260509153043 9 0 0.0 1.6 0.00 0.00 0.00 96 1021.5
20260509151542 8 0 0.0 0.0 0.00 0.00 0.00 95 1021.7
20260509150044 8 0 0.0 0.0 0.00 0.00 0.00 95 1021.7
20260509144545 8 0 0.0 0.0 0.00 0.00 0.00 96 1021.7
20260509143049 8 0 0.0 1.6 0.00 0.00 0.00 95 1021.7
20260509141548 7 0 0.0 1.6 0.00 0.00 0.00 95 1021.5
20260509140049 7 0 0.0 0.0 0.00 0.00 0.00 95 1021.6
20260509134543 7 0 0.0 0.0 0.00 0.00 0.00 95 1021.4
20260509133047 7 0 0.0 0.0 0.00 0.00 0.00 94 1021.5
20260509131544 7 0 0.0 1.6 0.00 0.00 0.00 94 1021.4
20260509130051 7 0 0.0 0.0 0.00 0.00 0.00 94 1021.4
20260509124554 7 0 0.0 0.0 0.00 0.00 0.00 93 1021.6
20260509123103 8 0 0.0 3.2 0.00 0.00 0.00 93 1021.6
20260509121549 8 0 0.0 0.0 0.00 0.00 0.00 93 1021.5
20260509120045 8 0 0.0 0.0 0.00 0.00 0.00 93 1021.4
20260509114544 8 0 0.0 1.6 0.00 0.00 0.00 93 1021.5
20260509113105 8 0 0.0 0.0 0.00 0.00 0.00 92 1021.6
20260509111551 8 0 0.0 0.0 0.00 0.00 0.00 92 1021.9
20260509110045 9 0 0.0 0.0 0.00 0.00 0.00 91 1022.0
20260509104555 9 0 0.0 1.6 0.00 0.00 0.00 91 1021.9
20260509103054 9 0 0.0 0.0 0.00 0.00 0.00 91 1021.9
20260509101543 10 0 0.0 4.8 0.00 0.00 0.00 91 1021.9
20260509100105 10 0 0.0 0.0 0.00 0.00 0.00 88 1021.9
20260509094541 10 0 0.0 0.0 0.00 0.00 0.00 87 1022.0